Hourly Data Report for January 22, 2022

CARBERRY CS
MANITOBA
Current Station Operator: ECCC - MSC

49°54'20.900" N
99°21'26.800" W
383.50 m
5010547
71170
WZE

Download Data

Hourly Data (January 2022)
Hourly Data Report for January 22, 2022
TIME
LST
Temp Definition
°C
Dew Point Definition
°C
Rel Hum Definition
%
Precip. Amount Definition
mm

Wind Dir Definition
10's deg

Wind Spd Definition
km/h
Visibility Definition
km
Stn Press Definition
kPa
Hmdx Definition


Wind Chill Definition


Weather Definition


00:00 -20.9 -24.5 73 0.0 30 14   97.54   -30 LegendNANA
01:00 -22.6 -26.1 74 0.0 29 16   97.59   -33 LegendNANA
02:00 -24.4 -27.3 77 0.0 28 15   97.63   -35 LegendNANA
03:00 -25.0 -28.2 75 0.0 28 15   97.65   -35 LegendNANA
04:00 -26.5 -29.6 75 0.0 28 14   97.66   -37 LegendNANA
05:00 -26.1 -28.1 83 0.0 27 14   97.61   -36 LegendNANA
06:00 -23.9 -26.9 76 0.0 27 12   97.62   -33 LegendNANA
07:00 -23.8 -26.6 77 0.0 21 5   97.51   -29 LegendNANA
08:00 -23.1 -26.0 77 0.0 23 10   97.52   -31 LegendNANA
09:00 -22.1 -25.3 75 0.0 24 7   97.43   -28 LegendNANA
10:00 -21.4 -25.0 73 0.0 22 6   97.40   -27 LegendNANA
11:00 -20.3 -23.8 74 0.0 21 3   97.39   -23 LegendNANA
12:00 -19.6 -22.9 75 0.2 25 5   97.36   -24 LegendNANA
13:00 -18.2 -22.0 72 0.3 2 2   97.27   -20 LegendNANA
14:00 -18.3 -22.0 73 0.0 28 3   97.16   -21 LegendNANA
15:00 -18.5 -21.9 74 0.0 35 7   97.21   -24 LegendNANA
16:00 -18.5 -21.6 77 0.0 32 5   97.28   -23 LegendNANA
17:00 -20.4 -23.5 76 0.0 1 9   97.45   -27 LegendNANA
18:00 -22.6 -24.8 82 0.0 2 7   97.49   -29 LegendNANA
19:00 -28.0 -30.1 82 0.0 32 3   97.56   -31 LegendNANA
20:00 -29.5 -32.0 79 0.0 26 6   97.61   -36 LegendNANA
21:00 -29.3 -31.8 79 0.0 26 7   97.68   -36 LegendNANA
22:00 -29.3 -31.3 82 0.0 28 6   97.67   -36 LegendNANA
23:00 -31.1 -33.7 78 0.2 26 3   97.64   -35 LegendNANA

Notes on Data Quality.

Legend

  • E = Estimated
  • M = Missing
  • NA = Not Available*
  • [empty] = Indicates an unobserved value
Date modified: